TimeEST,TemperatureF,Dew PointF,Humidity,Sea Level PressureIn,VisibilityMPH,Wind Direction,Wind SpeedMPH,Gust SpeedMPH,PrecipitationIn,Events,Conditions,WindDirDegrees,DateUTC
12:53 AM,-2.9,-18.9,46,30.06,10.0,WNW,3.5,-,N/A,,Clear,290,2013-01-24 05:53:00
1:53 AM,-4.0,-18.9,49,30.06,10.0,West,4.6,-,N/A,,Clear,280,2013-01-24 06:53:00
2:53 AM,-2.9,-18.9,46,30.06,10.0,Variable,4.6,-,N/A,,Clear,0,2013-01-24 07:53:00
3:53 AM,-2.9,-18.9,46,30.05,10.0,Variable,3.5,-,N/A,,Clear,0,2013-01-24 08:53:00
4:53 AM,-2.9,-18.9,46,30.04,10.0,West,5.8,-,N/A,,Clear,270,2013-01-24 09:53:00
5:53 AM,-2.9,-18.9,46,30.04,10.0,West,4.6,-,N/A,,Clear,280,2013-01-24 10:53:00
6:53 AM,-4.0,-18.0,51,30.04,10.0,West,5.8,-,N/A,,Clear,270,2013-01-24 11:53:00
7:53 AM,-0.9,-17.0,47,30.05,10.0,West,4.6,-,N/A,,Clear,280,2013-01-24 12:53:00
8:53 AM,1.9,-16.1,43,30.04,10.0,West,8.1,-,N/A,,Clear,270,2013-01-24 13:53:00
9:53 AM,6.1,-15.0,38,30.04,10.0,Variable,6.9,18.4,N/A,,Clear,0,2013-01-24 14:53:00
10:53 AM,9.0,-15.0,33,30.01,10.0,Variable,6.9,16.1,N/A,,Clear,0,2013-01-24 15:53:00
11:53 AM,10.9,-16.1,29,29.98,10.0,Variable,5.8,19.6,N/A,,Scattered Clouds,0,2013-01-24 16:53:00
12:53 PM,10.9,-16.1,29,29.97,10.0,WNW,9.2,17.3,N/A,,Overcast,290,2013-01-24 17:53:00
1:53 PM,10.9,-18.0,26,29.96,10.0,WNW,10.4,26.5,N/A,,Clear,300,2013-01-24 18:53:00
2:53 PM,10.0,-18.0,27,29.95,10.0,Variable,5.8,19.6,N/A,,Clear,0,2013-01-24 19:53:00
3:53 PM,10.9,-17.0,28,29.94,10.0,West,9.2,20.7,N/A,,Clear,270,2013-01-24 20:53:00
4:53 PM,10.9,-15.0,30,29.95,10.0,Variable,5.8,-,N/A,,Clear,0,2013-01-24 21:53:00
5:53 PM,10.9,-15.0,30,29.99,10.0,WNW,8.1,24.2,N/A,,Clear,300,2013-01-24 22:53:00
6:53 PM,8.1,-11.9,40,30.02,10.0,NW,10.4,25.3,N/A,,Clear,310,2013-01-24 23:53:00
7:53 PM,6.1,-11.9,44,30.06,10.0,Variable,5.8,16.1,N/A,,Clear,0,2013-01-25 00:53:00
8:53 PM,3.9,-13.0,46,30.07,10.0,Variable,4.6,-,N/A,,Clear,0,2013-01-25 01:53:00
9:53 PM,3.9,-13.0,46,30.09,10.0,WNW,6.9,18.4,N/A,,Clear,300,2013-01-25 02:53:00
10:53 PM,3.9,-13.0,46,30.11,10.0,WNW,6.9,-,N/A,,Clear,290,2013-01-25 03:53:00
11:53 PM,3.9,-13.0,46,30.10,10.0,Variable,6.9,17.3,N/A,,Clear,0,2013-01-25 04:53:00